Location: Hauppauge
(40.8260°N, 73.2030°W)
Time: 21:46:07
(UTC-04:00)

Daily predictions for brighter satellites

Satellite Brightness Start Highest point End
(mag) Time Altitude Azimuth Time Altitude Azimuth Time Altitude Azimuth
Cosmos 2297 Rocket 2.8 20:52:43 10° SW 20:58:18 64° WNW 21:03:58 10° NNE
NOSS 3-4 (A) 4.1 20:51:37 10° NW 20:58:41 74° WSW 21:06:12 10° SSE
NOSS 3-4 (C) 4.1 20:51:42 10° NW 20:58:47 75° WSW 21:06:19 10° SSE
Cosmos 1842 Rocket 3.9 20:55:09 10° NNW 20:59:32 70° W 21:03:51 10° S
Cosmos 1356 Rocket 4.3 20:57:05 10° SSE 21:00:51 32° E 21:04:40 10° NNE
Cosmos 1605 Rocket 4.2 20:54:55 10° N 21:01:12 80° W 21:07:32 10° S
H-2A R/B 3.9 20:59:47 10° ESE 21:03:20 18° ENE 21:06:55 10° NNE
Cosmos 1741 Rocket 4.0 21:00:50 10° S 21:06:06 67° ESE 21:11:23 10° NNE
Cosmos 2263 Rocket 4.1 21:07:34 10° E 21:07:56 10° E 21:08:19 10° E
Cosmos 1818 3.6 21:03:23 10° NNW 21:08:51 76° ENE 21:14:16 10° SE
YAOGAN 6 2.7 21:05:25 10° SSE 21:09:00 65° ENE 21:12:40 10° N
ATLAS 5 CENTAUR R/B 1.8 21:06:37 10° SW 21:11:14 88° NW 21:16:18 10° NE
Cosmos 1726 3.9 21:12:21 10° NNE 21:14:57 18° ENE 21:17:27 10° ESE
RESURS DK-1 3.8 21:14:01 10° N 21:17:31 26° ENE 21:20:58 10° ESE
Cosmos 1076 Rocket 3.7 21:14:51 10° S 21:19:07 54° E 21:23:23 10° NNE
Spot 1 4.2 21:16:06 10° S 21:20:10 71° WSW 21:24:24 10° NNW
Cosmos 1802 Rocket 4.3 21:15:04 10° N 21:21:00 49° ENE 21:26:55 10° SSE
Cosmos 1727 Rocket 4.4 21:15:09 10° SSW 21:21:25 70° W 21:27:47 10° N
Cosmos 1408 Rocket 4.2 21:18:35 10° SSE 21:22:31 36° E 21:26:29 10° NNE
Cosmos 2237 Rocket 3.9 21:22:49 10° NW 21:27:32 28° WSW 21:32:15 10° SSW
ERBS 4.3 21:27:30 10° NNW 21:30:08 21° NNE 21:32:47 10° E
Cosmos 1939 Rocket 4.0 21:26:47 10° S 21:30:35 42° W 21:34:28 10° NNW
Cosmos 1340 Rocket 4.1 21:29:06 10° SSW 21:32:55 42° WNW 21:36:49 10° N
Cosmos 2221 2.8 21:29:03 10° NNW 21:33:26 73° W 21:37:48 10° S
CZ-4B DEB 3.7 21:31:40 10° S 21:34:29 41° W 21:37:20 10° NNW
Envisat 4.4 21:31:05 10° SSW 21:35:44 36° W 21:40:26 10° NNW
Cosmos 1603 4.1 21:30:34 10° NNW 21:36:04 49° ENE 21:40:30 15° SE
Meteor 1-29 4.1 21:35:13 10° N 21:38:31 46° WNW 21:41:51 10° SSW
Tiangong 1 1.4 21:36:34 10° W 21:39:20 53° N 21:42:04 10° ENE
Cosmos 1674 2.9 21:40:03 10° SSW 21:43:48 69° W 21:47:33 10° N
Cosmos 371 Rocket 4.2 21:39:31 10° N 21:43:57 36° ENE 21:47:08 17° ESE
Cosmos 2208 Rocket 4.3 21:39:10 10° NNW 21:44:29 71° WSW 21:49:33 12° S
MetOp-A 4.1 21:40:22 12° SSE 21:45:21 80° ENE 21:50:43 10° NNW
ARGOS 3.3 21:42:43 14° SSE 21:47:17 65° ENE 21:52:39 10° N
Cosmos 2016 Rocket 4.0 21:41:25 10° N 21:47:39 67° E 21:52:56 14° SSE
CZ-3B R/B 3.9 21:46:56 10° SW 21:49:56 88° SE 22:00:15 10° NE
SPOT 5 3.1 21:47:02 17° SSE 21:50:45 62° ENE 21:55:48 10° N
Cosmos 1943 4.2 21:46:00 10° N 21:51:07 34° ENE 21:54:57 16° ESE
Lacrosse 5 2.1 21:46:38 10° NW 21:51:40 64° NE 21:55:19 19° ESE
GPS 2-05 Rocket1 4.4 21:50:04 10° SSW 21:51:24 16° S 21:51:24 16° S
Cosmos 1763 Rocket 4.3 21:47:36 10° N 21:52:18 36° ENE 21:55:27 18° ESE
Cosmos 1908 3.9 21:48:50 10° NNW 21:52:38 54° W 21:56:19 10° S
SL-16 R/B 3.2 21:47:25 10° NW 21:52:44 42° WSW 21:58:00 10° S
SPOT 1/Viking Rocket 3.8 21:54:30 19° SE 21:58:02 54° ENE 22:03:02 10° N
Cosmos 1766 Rocket 3.6 21:55:29 10° S 21:59:48 78° W 22:04:10 10° N
KORONAS-FOTON 4.1 21:57:15 10° SSW 22:01:01 64° W 22:04:47 10° N
Cosmos 1242 Rocket 3.8 22:00:34 10° NNW 22:04:03 39° W 22:07:16 12° SSW
Abrixas rocket 3.2 22:00:56 10° NW 22:04:03 41° NNE 22:06:04 18° E
Cosmos 1328 Rocket 3.6 22:01:16 10° N 22:05:33 59° E 22:07:52 25° SSE
USA 245 3.1 22:07:27 25° S 22:09:20 81° WSW 22:13:32 10° NNW
Landsat 7 4.3 22:08:35 24° SE 22:11:06 47° ENE 22:15:40 10° N
YAOGAN 11 4.2 22:08:19 20° S 22:11:24 79° WSW 22:15:59 10° NNW
Cosmos 1515 Rocket 3.9 22:07:15 10° N 22:11:29 48° E 22:13:24 28° SE
Cosmos 2233 Rocket 4.5 22:06:03 10° N 22:11:58 44° ENE 22:15:25 23° SE
Cosmos 1151 Rocket 3.8 22:07:53 10° N 22:12:00 37° ENE 22:13:43 26° ESE
H-2A R/B 3.4 22:13:53 20° ESE 22:15:33 26° ENE 22:19:05 10° NNE
Cosmos 1743 Rocket 3.5 22:13:15 23° S 22:15:53 69° E 22:20:12 10° NNE
USA 234 3.2 22:09:29 10° NE 22:16:03 76° SE 22:22:36 10° SW
Cosmos 2228 Rocket 3.1 22:15:05 10° N 22:19:42 79° E 22:22:04 28° SSE
Cosmos 468 Rocket 4.2 22:17:52 10° NNW 22:22:57 64° WSW 22:26:03 23° S
Cosmos 1703 4.1 22:22:24 30° ESE 22:23:05 32° E 22:26:40 10° NNE
SL-08 RB Rocket 3.9 22:21:53 23° S 22:24:42 67° W 22:29:18 10° NNW
Terra 2.3 22:24:00 29° SE 22:26:03 46° ENE 22:30:36 10° N
ERS-1 Rocket 4.4 22:21:58 10° SSW 22:26:27 32° W 22:30:57 10° NNW
Meteor 1-11 4.3 22:23:46 23° S 22:27:24 63° E 22:33:09 10° NNE
Nimbus 7 Rocket 4.5 22:25:51 10° NNE 22:31:54 84° WNW 22:37:30 12° SSW
H-2A ROCKET BODY 3.7 22:28:37 10° SSW 22:32:50 28° SSE 22:45:35 10° E
Cosmos 1503 Rocket 4.4 22:32:17 32° SSE 22:34:01 43° ESE 22:38:54 10° NNE
Cosmos 332 Rocket 4.2 22:29:41 10° NNW 22:34:31 59° WSW 22:37:02 27° S
Cosmos 2123 Rocket 4.4 22:36:04 10° SSW 22:42:03 62° W 22:48:13 10° N
H-2A R/B 2.4 22:39:05 25° S 22:42:11 63° W 22:47:34 10° NNW
Meteor 1-27 4.2 22:37:13 10° N 22:43:04 79° E 22:45:45 33° SSE
Cosmos 1626 2.1 22:44:38 56° SE 22:45:07 63° E 22:48:49 10° NNE
Cosmos 304 Rocket 4.4 22:40:46 10° N 22:45:23 44° ENE 22:46:52 34° ESE
Cosmos 2058 2.8 22:44:53 42° S 22:46:14 81° E 22:50:28 10° N
Cosmos 1726 4.0 22:47:11 10° NW 22:50:15 25° W 22:52:04 17° SW
CZ-4B R/B 4.1 22:45:29 10° NNE 22:50:26 40° E 22:51:29 36° SE
Cosmos 2263 Rocket 2.1 22:46:57 20° SSW 22:50:54 85° ESE 22:56:31 10° NNE
Cosmos 540 Rocket 4.0 22:46:56 10° N 22:51:54 46° ENE 22:53:35 34° ESE
Cosmos 1300 4.2 22:50:35 10° NNW 22:54:00 31° W 22:55:37 22° SW
RESURS DK-1 3.9 22:51:59 10° NW 22:55:31 27° WSW 22:56:54 22° SW
Spot 4 4.3 22:55:05 37° ESE 22:56:28 48° ENE 23:01:09 10° N
Cosmos 2285 Rocket 4.1 22:52:43 10° NNW 22:59:03 66° ENE 23:01:42 36° SE
Sich 1 4.1 22:59:55 28° E 22:59:55 28° E 23:03:27 10° NNE
ERBS 3.2 23:03:43 10° WNW 23:06:28 38° WSW 23:06:28 38° WSW
PSLV R/B 4.0 23:09:21 43° N 23:09:21 43° N 23:11:27 10° N
deb Chang Zheng 4 3.5 23:04:13 10° NNE 23:08:37 82° ESE 23:09:31 56° S
DELTA 2 DEB (DPAF) 4.4 23:11:06 48° ESE 23:11:49 54° ENE 23:16:10 10° N
Cosmos 2151 4.0 23:10:59 26° SW 23:12:56 42° WNW 23:17:03 10° N
Cosmos 1707 Rocket 3.9 23:09:06 10° N 23:13:27 48° E 23:13:54 46° E
Tiangong 1 3.0 23:12:13 10° WNW 23:13:24 22° WNW 23:13:24 22° WNW
Cosmos 1354 Rocket 4.1 23:16:06 32° SSW 23:18:36 74° WNW 23:23:51 10° NNE
Cosmos 1844 Rocket 3.4 23:24:43 34° ESE 23:24:43 34° ESE 23:29:38 10° NE
Cosmos 1072 Rocket 4.5 23:19:31 10° N 23:25:54 83° E 23:28:03 45° SSE
Cosmos 1455 2.4 23:23:41 10° NNW 23:27:30 61° W 23:27:33 61° W
CZ-4C R/B 2.3 23:28:14 49° ESE 23:28:23 49° ESE 23:33:57 10° NE
Cosmos 1666 Rocket 3.6 23:28:28 63° ESE 23:28:36 63° E 23:33:01 10° NNE
Cosmos 1464 Rocket 3.9 23:24:39 10° N 23:30:51 82° E 23:32:45 48° SSE
Lacrosse 5 3.5 23:30:28 10° WNW 23:34:13 21° WSW 23:34:30 21° SW
Cosmos 1943 4.2 23:30:03 10° NW 23:35:07 35° WSW 23:36:46 29° SW
Cosmos 1869 3.3 23:34:14 10° N 23:37:55 75° NNE 23:37:55 75° NNE
Cosmos 1805 Rocket 3.7 23:39:13 56° WSW 23:39:45 62° W 23:44:04 10° N
Cosmos 1633 Rocket 2.9 23:44:55 78° ENE 23:44:55 78° ENE 23:49:12 10° N
CZ-4C R/B 3.6 23:46:43 68° WSW 23:46:48 68° WSW 23:51:11 10° NNW
Cosmos 967 Rocket 4.4 23:42:00 10° NNW 23:48:25 89° WSW 23:50:08 52° SSE
Cosmos 783 Rocket 4.4 23:43:28 10° NNW 23:48:48 90° ENE 23:49:34 67° SSE
Cosmos 1400 Rocket 3.7 23:49:33 40° ENE 23:49:33 40° ENE 23:52:48 10° NNE
H-2A R/B 3.5 23:51:01 26° WSW 23:51:28 27° W 23:55:05 10° NW
SME Rocket 3.2 23:52:50 59° W 23:52:50 59° W 23:57:10 10° NNW
